[[{"header":{"parameterUnit":"m.s-1","parameterCategory":1,"la1":30.2991,"la2":30.254,"lo1":-89.0895,"lo2":-89.0444,"dy":0.0017,"dx":0.0017,"nx":28,"ny":28,"refTime":"2025-08-25T09:00:00:Z","depth":0,"parameterNumber":2,"parameterNumberName":"U-component_of_WINDS"},"data":[0,0,0,0,0,0,0,0,0,0,0,0,0,0,0,0,0,0,0,0,0,0,0,0,0,0,0,0,0,0,0,0,0,0,0,0,0,0,0,0,0,0,0,0,0,0,0,0,0,0,0,0,0,0,0,0,0,0,-1.9836,-1.9837,0,-1.9942,-1.9943,-1.9944,-1.9966,-1.9965,-1.9964,-1.9964,-2.0071,-2.0074,-2.0078,0,0,0,0,0,0,0,0,0,0,0,0,0,-1.965,-1.9653,-1.9836,-1.9837,-1.9838,-1.9941,-1.9943,-1.9944,-1.9966,-1.9965,-1.9964,-1.9963,-2.0069,-2.0074,-2.0078,0,0,0,0,0,0,0,0,0,0,0,0,0,-1.9741,-1.9654,-1.9835,-1.9862,-1.9865,-1.9941,-1.9943,-1.9945,-1.9966,-1.9965,-1.9964,-1.9963,-2.0068,-2.0073,-2.0078,-2.0136,0,0,-2.0095,-2.0097,0,0,0,0,0,0,0,0,-1.9735,-1.9747,-1.9856,-1.986,-1.9864,-1.9939,-1.9917,-2.0009,-1.9967,-1.9928,-1.9964,-1.9962,-2.0028,-2.0036,-2.0059,-2.0141,-2.0145,-2.0095,-2.0099,-2.0101,-2.0102,0,0,0,0,0,0,0,-1.9729,-1.9743,-1.9877,-1.9858,-1.9863,-1.9867,-1.9879,-1.9934,-1.9983,-1.9931,-1.9933,-1.9945,-2.003,-2.0054,-2.0061,-2.0147,-2.0095,-2.01,-2.0103,-2.0105,-2.0279,-2.028,0,0,0,0,0,0,-1.9718,-1.9737,-1.9874,-1.9881,-1.9795,-1.9872,-1.9885,-1.9916,-1.9983,-1.9992,-1.9946,-1.9946,-2.0045,-2.0055,-2.0065,-2.0135,-2.0101,-2.0106,-2.0109,-2.0278,-2.0279,-2.0281,0,0,0,0,0,0,-1.9714,-1.973,-1.987,-1.981,-1.9828,-1.9876,-1.9912,-1.9919,-1.9943,-1.9994,-2.0003,-1.9962,-2.0044,-2.0058,-2.0118,-2.0139,-2.0108,-2.0113,-2.0276,-2.0278,-2.028,-2.0276,0,0,0,0,0,0,-1.9709,-1.9729,-1.9752,-1.981,-1.9831,-1.9921,-1.9913,-1.9922,-1.9953,-1.9953,-2.0011,-2.0019,-2.0045,-2.011,-2.0123,-2.0146,-2.0117,-2.0274,-2.0277,-2.0279,-2.0275,-2.0278,-2.0281,0,0,0,0,0,-1.9702,-1.9746,-1.9753,-1.9769,-1.986,-1.9922,-1.9934,-1.9963,-1.9954,-1.9977,-2.0009,-2.0018,-2.0135,-2.0115,-2.0131,-2.0156,-2.0273,-2.0276,-2.0279,-2.0273,-2.0277,-2.0281,0,0,0,0,0,0,-1.9689,-1.9754,-1.9762,-1.9827,-1.9869,-1.9926,-1.9955,-1.9966,-2.0011,-2.001,-2.0043,-2.0056,-2.0113,-2.0141,-2.0118,-2.0214,-2.0203,-2.021,-2.0194,-2.0198,-2.0201,-2.0192,-2.0122,0,0,0,0,0,-1.9693,-1.9738,-1.9793,-1.9845,-1.9866,-1.9907,-1.9935,-1.9953,-1.9998,-2.0016,-2.0053,-2.0095,-2.0142,-2.0172,-2.0217,-2.0279,-2.0291,-2.0304,-2.0307,-2.0309,-2.0314,-2.0347,-2.0353,-2.0291,-2.0291,-2.0291,0,0,-1.9703,-1.9744,-1.9771,-1.9843,-1.9878,-1.9923,-1.9922,-1.997,-2.0004,-2.0023,-2.0081,-2.011,-2.016,-2.0221,-2.0249,-2.0245,-2.0334,-2.0313,-2.0315,-2.0318,-2.0351,-2.0357,-2.0362,-2.0293,-2.0293,-2.0292,0,0,-1.9743,-1.978,-1.9826,-1.9861,-1.9914,-1.9941,-1.9952,-2.0008,-2.0027,-2.0087,-2.0102,-2.0142,-2.0222,-2.0256,-2.0284,-2.0337,-2.0346,-2.0351,-2.0367,-2.0399,-2.0404,-2.0408,-2.0426,-2.0432,-2.0356,-2.0356,-2.0356,0,-1.9748,-1.9818,-1.9848,-1.9896,-1.9927,-1.9947,-1.9993,-2.0025,-2.009,-2.011,-2.0105,-2.0205,-2.024,-2.0308,-2.0321,-2.0344,-2.0356,-2.0344,-2.0401,-2.0405,-2.041,-2.0427,-2.0434,-2.0356,-2.0356,-2.0356,-2.0356,0,-1.9821,-1.9869,-1.99,-1.9962,-1.9996,-2.0043,-2.0079,-2.011,-2.0126,-2.0153,-2.0213,-2.0255,-2.0309,-2.0327,-2.0343,-2.0398,-2.0393,-2.0394,-2.0384,-2.0415,-2.0432,-2.0439,-2.0356,-2.0356,-2.0356,-2.0356,0,0,-1.9855,-1.9934,-1.9944,-1.9972,-2.0032,-2.0069,-2.0116,-2.0169,-2.0194,-2.0239,-2.0278,-2.0345,-2.0346,-2.0377,-2.0397,-2.0425,-2.0462,-2.0422,-2.0424,-2.0427,-2.0524,-2.0522,-2.0529,-2.0469,-2.047,-2.0471,-2.0519,0,-1.9902,-1.9987,-2.0016,-2.0086,-2.013,-2.0149,-2.019,-2.023,-2.0257,-2.0298,-2.0327,-2.0373,-2.0372,-2.0391,-2.042,-2.0452,-2.0482,-2.0449,-2.0505,-2.0506,-2.049,-2.0538,-2.0536,-2.0579,-2.0526,-2.0527,-2.0528,0,-1.9968,-2.0013,-2.0087,-2.014,-2.016,-2.0196,-2.0247,-2.0286,-2.0331,-2.0349,-2.0384,-2.0401,-2.045,-2.0438,-2.0505,-2.0482,-2.0506,-2.0525,-2.0528,-2.0533,-2.0518,-2.0543,-2.0594,-2.06,-2.0539,-2.0538,-2.0537,0,-1.9984,-2.0063,-2.0117,-2.0141,-2.0205,-2.0229,-2.0257,-2.0302,-2.0331,-2.0376,-2.0395,-2.0444,-2.0471,-2.0508,-2.0537,-2.0526,-2.0601,-2.0592,-2.0616,-2.0615,-2.063,-2.0628,-2.0684,-2.0648,-2.0648,-2.0648,-2.0648,0,-2.0032,-2.0076,-2.0125,-2.0159,-2.0209,-2.0241,-2.0289,-2.0318,-2.0357,-2.0396,-2.0416,-2.0452,-2.0489,-2.053,-2.0553,-2.0604,-2.0617,-2.0631,-2.0637,-2.0629,-2.0627,-2.0644,-2.0642,-2.065,-2.0649,-2.0649,-2.0649,0,-2.0058,-2.0092,-2.0153,-2.0208,-2.0223,-2.0257,-2.0304,-2.0337,-2.0364,-2.0413,-2.0426,-2.0469,-2.0518,-2.0551,-2.0613,-2.0629,-2.0684,-2.069,-2.0668,-2.0671,-2.0692,-2.0689,-2.076,-2.0771,-2.0729,-2.0729,-2.073,0,-2.0086,-2.012,-2.0179,-2.0206,-2.0234,-2.0278,-2.0309,-2.0341,-2.0372,-2.0426,-2.0452,-2.0502,-2.0544,-2.062,-2.0656,-2.0704,-2.071,-2.0732,-2.0717,-2.0708,-2.0709,-2.0706,-2.0709,-2.0733,-2.0734,-2.0734,-2.0734,0,-2.0131,-2.0146,-2.019,-2.0239,-2.0274,-2.0315,-2.0355,-2.0376,-2.0416,-2.0449,-2.0499,-2.0531,-2.0595,-2.0644,-2.0694,-2.0722,-2.0734,-2.0739,-2.0746,-2.0738,-2.0724,-2.073,-2.0673,-2.0736,-2.0736,-2.0736,-2.0736,-2.0736,-2.0158,-2.0189,-2.0235,-2.0282,-2.0316,-2.0353,-2.0386,-2.0418,-2.046,-2.0514,-2.0531,-2.0583,-2.0627,-2.0696,-2.0725,-2.0765,-2.0763,-2.0775,-2.0777,-2.0779,-2.0778,-2.0718,-2.0774,-2.0774,-2.0774,-2.0774,-2.0774,0,-2.0203,-2.0233,-2.0277,-2.0332,-2.0369,-2.0378,-2.0423,-2.0453,-2.0498,-2.0539,-2.0579,-2.0636,-2.0683,-2.0723,-2.0772,-2.0796,-2.0803,-2.0808,-2.0806,-2.0812,-2.0778,-2.0766,-2.0801,-2.0801,-2.0801,-2.0801,-2.0801,-2.0801,-2.0231,-2.0283,-2.0304,-2.0373,-2.0404,-2.0454,-2.0479,-2.0513,-2.0545,-2.0608,-2.0647,-2.0673,-2.0713,-2.0765,-2.0808,-2.0819,-2.0835,-2.0838,-2.085,-2.0817,-2.0814,-2.0811,-2.08,-2.0842,-2.0842,-2.088,-2.088,-2.088]},{"header":{"parameterUnit":"m.s-1","parameterCategory":1,"la1":30.2991,"la2":30.254,"lo1":-89.0895,"lo2":-89.0444,"dy":0.0017,"dx":0.0017,"nx":28,"ny":28,"refTime":"2025-08-25T09:00:00:Z","depth":0,"parameterNumber":3,"parameterNumberName":"V-component_of_WINDS"},"data":[0,0,0,0,0,0,0,0,0,0,0,0,0,0,0,0,0,0,0,0,0,0,0,0,0,0,0,0,0,0,0,0,0,0,0,0,0,0,0,0,0,0,0,0,0,0,0,0,0,0,0,0,0,0,0,0,0,0,-1.4599,-1.4601,0,-1.4753,-1.4755,-1.4757,-1.4853,-1.4854,-1.4854,-1.4855,-1.5011,-1.5014,-1.5018,0,0,0,0,0,0,0,0,0,0,0,0,0,-1.4387,-1.439,-1.4599,-1.4601,-1.4603,-1.4753,-1.4755,-1.4757,-1.4853,-1.4854,-1.4854,-1.4855,-1.5009,-1.5014,-1.5018,0,0,0,0,0,0,0,0,0,0,0,0,0,-1.4503,-1.4391,-1.4599,-1.4669,-1.4677,-1.4753,-1.4755,-1.4758,-1.4853,-1.4854,-1.4854,-1.4855,-1.5008,-1.5013,-1.5019,-1.5036,0,0,-1.5035,-1.5038,0,0,0,0,0,0,0,0,-1.4497,-1.4511,-1.4657,-1.4664,-1.4673,-1.4785,-1.4738,-1.4851,-1.4853,-1.4786,-1.4855,-1.4856,-1.4935,-1.4946,-1.4973,-1.5044,-1.505,-1.5036,-1.5039,-1.5042,-1.5043,0,0,0,0,0,0,0,-1.4489,-1.4505,-1.466,-1.4659,-1.4669,-1.4692,-1.471,-1.476,-1.4854,-1.4792,-1.4799,-1.4816,-1.4939,-1.4968,-1.4978,-1.5053,-1.5036,-1.5041,-1.5044,-1.5046,-1.5145,-1.5145,0,0,0,0,0,0,-1.447,-1.4498,-1.4655,-1.4665,-1.4585,-1.4695,-1.4715,-1.4748,-1.4854,-1.4871,-1.4815,-1.482,-1.4958,-1.4971,-1.4984,-1.5011,-1.5042,-1.5047,-1.505,-1.5146,-1.5145,-1.5144,0,0,0,0,0,0,-1.4465,-1.4483,-1.4649,-1.4583,-1.4606,-1.4698,-1.4735,-1.4751,-1.4779,-1.4871,-1.4889,-1.4827,-1.4959,-1.4976,-1.5023,-1.5018,-1.5049,-1.5054,-1.5147,-1.5146,-1.5145,-1.5066,0,0,0,0,0,0,-1.4458,-1.448,-1.4488,-1.4583,-1.461,-1.4686,-1.4734,-1.4753,-1.4789,-1.4796,-1.4887,-1.4903,-1.4961,-1.5014,-1.5028,-1.5026,-1.5058,-1.5148,-1.5146,-1.5145,-1.5069,-1.5062,-1.5056,0,0,0,0,0,-1.445,-1.446,-1.4488,-1.4507,-1.4621,-1.4685,-1.47,-1.4768,-1.4788,-1.4797,-1.4856,-1.49,-1.5016,-1.5018,-1.5035,-1.5034,-1.5148,-1.5147,-1.5145,-1.5072,-1.5063,-1.5056,0,0,0,0,0,0,-1.4361,-1.4473,-1.4506,-1.4547,-1.4606,-1.4701,-1.4714,-1.4757,-1.4811,-1.4816,-1.4897,-1.4916,-1.4955,-1.5,-1.4999,-1.5057,-1.5087,-1.5089,-1.5026,-1.5018,-1.5012,-1.5,-1.5063,0,0,0,0,0,-1.4347,-1.439,-1.4485,-1.4511,-1.4539,-1.4621,-1.4652,-1.4699,-1.4763,-1.4788,-1.4851,-1.4911,-1.4961,-1.4993,-1.5044,-1.5076,-1.5097,-1.5084,-1.5078,-1.5072,-1.5072,-1.5092,-1.5087,-1.514,-1.514,-1.514,0,0,-1.4316,-1.4383,-1.4405,-1.4495,-1.4546,-1.4588,-1.4642,-1.4684,-1.4716,-1.4795,-1.4843,-1.489,-1.4963,-1.5003,-1.5023,-1.5041,-1.5062,-1.507,-1.5065,-1.5068,-1.509,-1.5085,-1.508,-1.5139,-1.5139,-1.5139,0,0,-1.4282,-1.4337,-1.4365,-1.4416,-1.4493,-1.4548,-1.4554,-1.4644,-1.4679,-1.4728,-1.4788,-1.4827,-1.4912,-1.4961,-1.4997,-1.4982,-1.5024,-1.4996,-1.4962,-1.498,-1.4976,-1.4973,-1.4966,-1.4963,-1.4997,-1.4996,-1.4996,0,-1.4234,-1.4301,-1.4374,-1.4413,-1.445,-1.4524,-1.4553,-1.4598,-1.4688,-1.4712,-1.4731,-1.4839,-1.4893,-1.4945,-1.4941,-1.4968,-1.4977,-1.4986,-1.4971,-1.4968,-1.4966,-1.4961,-1.4959,-1.4992,-1.4993,-1.4993,-1.4994,0,-1.4238,-1.4283,-1.4296,-1.4381,-1.4421,-1.4454,-1.4531,-1.4563,-1.4606,-1.4658,-1.4708,-1.4775,-1.4841,-1.4858,-1.49,-1.4915,-1.4924,-1.4956,-1.4988,-1.4956,-1.4953,-1.4951,-1.4987,-1.4988,-1.4989,-1.499,0,0,-1.4151,-1.4277,-1.428,-1.432,-1.4411,-1.4447,-1.4483,-1.4549,-1.4573,-1.4633,-1.4665,-1.4735,-1.4765,-1.4806,-1.4855,-1.4872,-1.4854,-1.4902,-1.4905,-1.489,-1.4874,-1.4848,-1.4845,-1.4884,-1.4884,-1.4884,-1.4867,0,-1.413,-1.42,-1.4266,-1.4312,-1.4354,-1.4425,-1.4457,-1.4516,-1.4566,-1.4609,-1.4664,-1.4712,-1.4749,-1.4774,-1.4793,-1.4852,-1.4852,-1.4854,-1.4913,-1.4914,-1.4891,-1.4843,-1.4817,-1.4798,-1.4867,-1.4867,-1.4866,0,-1.4114,-1.4171,-1.422,-1.4307,-1.4327,-1.4355,-1.442,-1.446,-1.4528,-1.4564,-1.4609,-1.4661,-1.4703,-1.4731,-1.4789,-1.4789,-1.4818,-1.485,-1.4851,-1.4858,-1.4887,-1.4848,-1.4794,-1.479,-1.4865,-1.4865,-1.4865,0,-1.4044,-1.4133,-1.4175,-1.4206,-1.4309,-1.4326,-1.437,-1.4439,-1.4474,-1.4531,-1.4554,-1.4615,-1.4647,-1.4693,-1.476,-1.4774,-1.481,-1.4844,-1.484,-1.4838,-1.4843,-1.4841,-1.4791,-1.4863,-1.4863,-1.4863,-1.4863,0,-1.4013,-1.404,-1.4145,-1.4169,-1.4202,-1.4279,-1.4309,-1.4359,-1.442,-1.4455,-1.4521,-1.4553,-1.464,-1.4682,-1.4735,-1.4774,-1.4789,-1.4818,-1.4831,-1.4811,-1.4807,-1.483,-1.4832,-1.4862,-1.4862,-1.4863,-1.4863,0,-1.394,-1.4011,-1.406,-1.4154,-1.4178,-1.4198,-1.4277,-1.4304,-1.4358,-1.4403,-1.4417,-1.4502,-1.4555,-1.4627,-1.4702,-1.4737,-1.4769,-1.4791,-1.4746,-1.4754,-1.4745,-1.4744,-1.4706,-1.4705,-1.4778,-1.4777,-1.4776,0,-1.3914,-1.3937,-1.4033,-1.4062,-1.4103,-1.4149,-1.4185,-1.4261,-1.4296,-1.4376,-1.4392,-1.4451,-1.4501,-1.4583,-1.465,-1.4708,-1.4731,-1.4714,-1.474,-1.4719,-1.473,-1.4727,-1.4729,-1.4707,-1.4706,-1.4705,-1.4704,0,-1.3861,-1.3895,-1.3945,-1.4007,-1.4048,-1.41,-1.4156,-1.4175,-1.4264,-1.4299,-1.4355,-1.4394,-1.4471,-1.4527,-1.4594,-1.4639,-1.4685,-1.4696,-1.4698,-1.4676,-1.4649,-1.4663,-1.4727,-1.4696,-1.4697,-1.4697,-1.4698,-1.4698,-1.381,-1.3833,-1.3904,-1.3958,-1.4007,-1.4058,-1.4087,-1.4145,-1.4193,-1.4262,-1.4304,-1.4357,-1.4425,-1.452,-1.4563,-1.4605,-1.4623,-1.4626,-1.4627,-1.4626,-1.4619,-1.4643,-1.4618,-1.4618,-1.4618,-1.4619,-1.4619,0,-1.3759,-1.3808,-1.3857,-1.3932,-1.3974,-1.4016,-1.4079,-1.4111,-1.4157,-1.4216,-1.4265,-1.4328,-1.4384,-1.4456,-1.4516,-1.4536,-1.4559,-1.455,-1.4548,-1.4557,-1.4599,-1.4591,-1.453,-1.453,-1.453,-1.453,-1.453,-1.453,-1.3737,-1.3779,-1.3821,-1.3888,-1.3937,-1.399,-1.4023,-1.4069,-1.4117,-1.4185,-1.4232,-1.4279,-1.4343,-1.4409,-1.4462,-1.4482,-1.45,-1.4483,-1.4509,-1.4547,-1.4554,-1.4562,-1.4555,-1.4487,-1.4487,-1.4464,-1.4464,-1.4464]}]]